Time,TemperatureF,DewpointF,PressureIn,WindDirection,WindDirectionDegrees,WindSpeedMPH,WindSpeedGustMPH,Humidity,HourlyPrecipIn,Conditions,Clouds,dailyrainin,SoftwareType,DateUTC
2013-04-30 00:01:00,54.0,53.0,29.82,WSW,242,0.0,0.0,98,0.00,,,0.01,,2013-04-30 07:01:00,
2013-04-30 00:11:00,54.0,53.0,29.82,WSW,242,0.0,0.0,98,0.00,,,0.01,,2013-04-30 07:11:00,
2013-04-30 00:21:00,53.0,52.0,29.82,WSW,242,0.0,0.0,97,0.00,,,0.01,,2013-04-30 07:21:00,
2013-04-30 00:31:00,54.0,53.0,29.82,WSW,242,0.0,0.0,97,0.00,,,0.01,,2013-04-30 07:31:00,
2013-04-30 00:41:00,54.0,53.0,29.82,WSW,242,0.0,0.0,97,0.00,,,0.01,,2013-04-30 07:41:00,
2013-04-30 00:52:00,54.0,53.0,29.83,WSW,242,0.0,0.0,97,0.00,,,0.01,,2013-04-30 07:52:00,
2013-04-30 01:02:00,54.0,53.0,29.82,WSW,242,0.0,0.0,97,0.00,,,0.01,,2013-04-30 08:02:00,
2013-04-30 01:11:00,54.0,53.0,29.82,WSW,242,0.0,0.0,97,0.00,,,0.01,,2013-04-30 08:11:00,
2013-04-30 01:21:00,54.0,53.0,29.82,WSW,242,0.0,0.0,97,0.00,,,0.01,,2013-04-30 08:21:00,
2013-04-30 01:31:00,54.0,53.0,29.82,WSW,242,0.0,0.0,97,0.00,,,0.01,,2013-04-30 08:31:00,
2013-04-30 01:41:00,54.0,53.0,29.82,WSW,242,0.0,0.0,97,0.00,,,0.01,,2013-04-30 08:41:00,
2013-04-30 01:52:00,54.0,53.0,29.82,WSW,242,0.0,0.0,97,0.00,,,0.01,,2013-04-30 08:52:00,
2013-04-30 02:01:00,54.0,53.0,29.82,WSW,242,0.0,0.0,97,0.00,,,0.01,,2013-04-30 09:01:00,
2013-04-30 02:11:00,54.0,53.0,29.82,WSW,242,0.0,0.0,97,0.00,,,0.01,,2013-04-30 09:11:00,
2013-04-30 02:21:00,54.0,53.0,29.82,WSW,242,0.0,0.0,97,0.00,,,0.01,,2013-04-30 09:21:00,
2013-04-30 02:32:00,54.0,53.0,29.81,WSW,242,0.0,0.0,98,0.00,,,0.01,,2013-04-30 09:32:00,
2013-04-30 02:42:00,54.0,53.0,29.81,WSW,242,0.0,0.0,98,0.00,,,0.01,,2013-04-30 09:42:00,
2013-04-30 02:52:00,54.0,53.0,29.81,WSW,242,0.0,0.0,98,0.00,,,0.01,,2013-04-30 09:52:00,
2013-04-30 03:02:00,54.0,53.0,29.81,WSW,242,0.0,0.0,98,0.00,,,0.01,,2013-04-30 10:02:00,
2013-04-30 03:11:00,54.0,53.0,29.81,WSW,242,0.0,0.0,98,0.00,,,0.01,,2013-04-30 10:11:00,
2013-04-30 03:22:00,54.0,54.0,29.81,WSW,242,0.0,0.0,99,0.00,,,0.01,,2013-04-30 10:22:00,
2013-04-30 03:32:00,54.0,54.0,29.81,WSW,242,0.0,0.0,99,0.00,,,0.01,,2013-04-30 10:32:00,
2013-04-30 03:41:00,54.0,54.0,29.81,WSW,242,0.0,0.0,99,0.00,,,0.01,,2013-04-30 10:41:00,
2013-04-30 03:52:00,54.0,54.0,29.81,WSW,242,0.0,0.0,99,0.00,,,0.01,,2013-04-30 10:52:00,
2013-04-30 04:01:00,54.0,54.0,29.81,WSW,242,0.0,0.0,99,0.00,,,0.01,,2013-04-30 11:01:00,
2013-04-30 04:11:00,54.0,54.0,29.81,WSW,242,0.0,0.0,99,0.00,,,0.01,,2013-04-30 11:11:00,
2013-04-30 04:21:00,54.0,53.0,29.81,WSW,242,0.0,0.0,98,0.00,,,0.01,,2013-04-30 11:21:00,
2013-04-30 04:31:00,54.0,53.0,29.80,WSW,243,0.0,0.0,98,0.00,,,0.00,,2013-04-30 11:31:00,
2013-04-30 04:42:00,54.0,53.0,29.80,WSW,243,0.0,0.0,98,0.00,,,0.00,,2013-04-30 11:42:00,
2013-04-30 04:51:00,54.0,53.0,29.80,WSW,242,0.0,0.0,98,0.00,,,0.00,,2013-04-30 11:51:00,
2013-04-30 05:01:00,54.0,53.0,29.80,WSW,242,0.0,0.0,98,0.00,,,0.00,,2013-04-30 12:01:00,
2013-04-30 05:11:00,54.0,53.0,29.80,WSW,242,0.0,0.0,98,0.00,,,0.00,,2013-04-30 12:11:00,
2013-04-30 05:21:00,54.0,53.0,29.81,WSW,243,0.0,0.0,98,0.00,,,0.00,,2013-04-30 12:21:00,
2013-04-30 05:31:00,54.0,53.0,29.80,WSW,243,0.0,0.0,98,0.00,,,0.00,,2013-04-30 12:31:00,
2013-04-30 05:41:00,54.0,53.0,29.80,WSW,243,0.0,0.0,98,0.00,,,0.00,,2013-04-30 12:41:00,
2013-04-30 05:51:00,54.0,53.0,29.80,WSW,243,0.0,0.0,98,0.00,,,0.00,,2013-04-30 12:51:00,
2013-04-30 06:01:00,54.0,53.0,29.80,WSW,242,0.0,0.0,98,0.00,,,0.00,,2013-04-30 13:01:00,
2013-04-30 06:11:00,54.0,53.0,29.80,WSW,242,0.0,0.0,98,0.00,,,0.00,,2013-04-30 13:11:00,
2013-04-30 06:21:00,54.0,53.0,29.81,NW,323,0.0,2.0,98,0.01,,,0.01,,2013-04-30 13:21:00,
2013-04-30 06:31:00,54.0,54.0,29.81,NW,322,0.0,0.0,99,0.01,,,0.01,,2013-04-30 13:31:00,
2013-04-30 06:41:00,54.0,54.0,29.81,NW,322,0.0,0.0,99,0.01,,,0.01,,2013-04-30 13:41:00,
2013-04-30 06:52:00,54.0,54.0,29.82,NW,322,0.0,0.0,99,0.01,,,0.01,,2013-04-30 13:52:00,
2013-04-30 07:01:00,54.0,54.0,29.82,NW,322,0.0,1.0,99,0.01,,,0.01,,2013-04-30 14:01:00,
2013-04-30 07:11:00,53.0,53.0,29.83,NW,322,0.0,0.0,99,0.00,,,0.01,,2013-04-30 14:11:00,
2013-04-30 07:21:00,53.0,53.0,29.83,NW,322,0.0,0.0,99,0.00,,,0.01,,2013-04-30 14:21:00,
2013-04-30 07:31:00,54.0,54.0,29.83,NW,322,0.0,1.0,99,0.00,,,0.01,,2013-04-30 14:31:00,
2013-04-30 07:41:00,54.0,54.0,29.83,NW,322,0.0,1.0,99,0.00,,,0.01,,2013-04-30 14:41:00,
2013-04-30 07:52:00,53.0,53.0,29.83,NW,322,0.0,1.0,99,0.00,,,0.01,,2013-04-30 14:52:00,
2013-04-30 08:01:00,53.0,53.0,29.83,NE,56,0.0,5.0,99,0.00,,,0.01,,2013-04-30 15:01:00,
2013-04-30 08:11:00,53.0,53.0,29.83,NE,56,0.0,5.0,99,0.00,,,0.01,,2013-04-30 15:11:00,
2013-04-30 08:21:00,53.0,53.0,29.83,NNW,347,0.0,5.0,99,0.00,,,0.01,,2013-04-30 15:21:00,
2013-04-30 08:32:00,54.0,54.0,29.83,NNE,14,0.0,1.0,99,0.00,,,0.01,,2013-04-30 15:32:00,
2013-04-30 08:42:00,54.0,54.0,29.83,NNE,14,0.0,1.0,99,0.00,,,0.01,,2013-04-30 15:42:00,
2013-04-30 08:52:00,54.0,53.0,29.83,NNE,14,0.0,1.0,98,0.00,,,0.01,,2013-04-30 15:52:00,
2013-04-30 09:02:00,54.0,53.0,29.83,NNE,14,0.0,0.0,98,0.00,,,0.01,,2013-04-30 16:02:00,
2013-04-30 09:12:00,54.0,53.0,29.83,NNE,14,0.0,0.0,98,0.00,,,0.01,,2013-04-30 16:12:00,
2013-04-30 09:22:00,54.0,53.0,29.83,North,5,2.0,3.0,97,0.00,,,0.01,,2013-04-30 16:22:00,
2013-04-30 09:32:00,55.0,54.0,29.83,North,5,0.0,3.0,97,0.00,,,0.01,,2013-04-30 16:32:00,
2013-04-30 09:42:00,55.0,54.0,29.83,North,5,0.0,3.0,97,0.00,,,0.01,,2013-04-30 16:42:00,
2013-04-30 09:52:00,55.0,54.0,29.83,North,5,0.0,3.0,95,0.00,,,0.01,,2013-04-30 16:52:00,
2013-04-30 10:02:00,56.0,55.0,29.83,North,355,0.0,1.0,95,0.00,,,0.01,,2013-04-30 17:02:00,
2013-04-30 10:11:00,56.0,55.0,29.83,North,355,0.0,1.0,95,0.00,,,0.01,,2013-04-30 17:11:00,
2013-04-30 10:22:00,56.0,54.0,29.84,North,355,0.0,1.0,93,0.00,,,0.01,,2013-04-30 17:22:00,
2013-04-30 10:32:00,56.0,54.0,29.84,NNW,331,0.0,1.0,93,0.00,,,0.01,,2013-04-30 17:32:00,
2013-04-30 10:42:00,56.0,54.0,29.84,NNW,331,0.0,1.0,93,0.00,,,0.01,,2013-04-30 17:42:00,
2013-04-30 10:52:00,57.0,55.0,29.84,NW,311,0.0,3.0,93,0.00,,,0.01,,2013-04-30 17:52:00,
2013-04-30 11:01:00,57.0,55.0,29.85,WNW,299,0.0,1.0,92,0.00,,,0.01,,2013-04-30 18:01:00,
2013-04-30 11:11:00,57.0,55.0,29.85,WNW,299,0.0,1.0,92,0.00,,,0.01,,2013-04-30 18:11:00,
2013-04-30 11:22:00,58.0,55.0,29.84,West,279,0.0,1.0,91,0.00,,,0.01,,2013-04-30 18:22:00,
2013-04-30 11:32:00,58.0,55.0,29.85,West,278,0.0,2.0,90,0.00,,,0.01,,2013-04-30 18:32:00,
2013-04-30 11:41:00,58.0,55.0,29.85,West,278,0.0,2.0,90,0.00,,,0.01,,2013-04-30 18:41:00,
2013-04-30 11:52:00,59.0,56.0,29.84,WSW,255,0.0,4.0,89,0.00,,,0.01,,2013-04-30 18:52:00,
2013-04-30 12:01:00,59.0,56.0,29.84,WSW,257,0.0,3.0,89,0.00,,,0.01,,2013-04-30 19:01:00,
2013-04-30 12:11:00,59.0,56.0,29.84,WSW,257,0.0,3.0,89,0.00,,,0.01,,2013-04-30 19:11:00,
2013-04-30 12:21:00,59.0,55.0,29.84,WSW,249,2.0,4.0,88,0.00,,,0.01,,2013-04-30 19:21:00,
2013-04-30 12:31:00,59.0,56.0,29.84,SW,232,0.0,5.0,89,0.00,,,0.01,,2013-04-30 19:31:00,
2013-04-30 12:41:00,59.0,56.0,29.84,SW,232,0.0,5.0,89,0.00,,,0.01,,2013-04-30 19:41:00,
2013-04-30 12:52:00,59.0,55.0,29.84,SW,230,0.0,5.0,88,0.00,,,0.01,,2013-04-30 19:52:00,
2013-04-30 13:01:00,59.0,55.0,29.84,SW,218,0.0,5.0,88,0.00,,,0.01,,2013-04-30 20:01:00,
2013-04-30 13:11:00,59.0,55.0,29.84,SW,218,0.0,5.0,88,0.00,,,0.01,,2013-04-30 20:11:00,
2013-04-30 13:21:00,59.0,55.0,29.84,SSW,209,0.0,6.0,86,0.00,,,0.01,,2013-04-30 20:21:00,
2013-04-30 13:32:00,60.0,55.0,29.84,WSW,242,0.0,7.0,85,0.00,,,0.01,,2013-04-30 20:32:00,
2013-04-30 13:42:00,60.0,55.0,29.84,WSW,242,0.0,7.0,85,0.00,,,0.01,,2013-04-30 20:42:00,
2013-04-30 13:52:00,60.0,55.0,29.84,SSW,205,0.0,7.0,84,0.00,,,0.01,,2013-04-30 20:52:00,
2013-04-30 14:01:00,60.0,55.0,29.84,SSW,207,1.0,5.0,84,0.00,,,0.01,,2013-04-30 21:01:00,
2013-04-30 14:11:00,61.0,55.0,29.84,SSE,165,0.0,1.0,80,0.00,,,0.01,,2013-04-30 21:11:00,
2013-04-30 14:21:00,61.0,55.0,29.84,SSE,165,0.0,1.0,80,0.00,,,0.01,,2013-04-30 21:21:00,
2013-04-30 14:32:00,61.0,55.0,29.84,SW,221,3.0,6.0,80,0.00,,,0.01,,2013-04-30 21:32:00,
2013-04-30 14:42:00,61.0,55.0,29.84,SW,221,3.0,6.0,80,0.00,,,0.01,,2013-04-30 21:42:00,
2013-04-30 14:53:00,62.0,55.0,29.83,SW,226,1.0,4.0,78,0.00,,,0.01,,2013-04-30 21:53:00,
2013-04-30 15:02:00,62.0,55.0,29.83,SW,232,0.0,6.0,77,0.00,,,0.01,,2013-04-30 22:02:00,
2013-04-30 15:12:00,62.0,55.0,29.83,SW,232,0.0,6.0,77,0.00,,,0.01,,2013-04-30 22:12:00,
2013-04-30 15:22:00,62.0,55.0,29.82,SW,230,0.0,5.0,77,0.00,,,0.01,,2013-04-30 22:22:00,
2013-04-30 15:32:00,62.0,54.0,29.82,SSW,193,1.0,3.0,76,0.00,,,0.01,,2013-04-30 22:32:00,
2013-04-30 15:41:00,62.0,54.0,29.82,SSW,193,1.0,3.0,76,0.00,,,0.01,,2013-04-30 22:41:00,
2013-04-30 15:53:00,63.0,55.0,29.82,South,178,0.0,4.0,75,0.00,,,0.01,,2013-04-30 22:53:00,
2013-04-30 16:02:00,63.0,55.0,29.81,South,182,0.0,3.0,74,0.00,,,0.01,,2013-04-30 23:02:00,
2013-04-30 16:11:00,63.0,55.0,29.81,South,182,0.0,3.0,74,0.00,,,0.01,,2013-04-30 23:11:00,
2013-04-30 16:21:00,63.0,55.0,29.81,SW,233,0.0,4.0,74,0.00,,,0.01,,2013-04-30 23:21:00,
2013-04-30 16:32:00,62.0,54.0,29.81,WSW,254,1.0,5.0,74,0.00,,,0.01,,2013-04-30 23:32:00,
2013-04-30 16:42:00,62.0,54.0,29.81,WSW,254,1.0,5.0,74,0.00,,,0.01,,2013-04-30 23:42:00,
2013-04-30 16:52:00,62.0,54.0,29.81,SW,215,0.0,6.0,75,0.00,,,0.01,,2013-04-30 23:52:00,
2013-04-30 17:01:00,62.0,54.0,29.81,ESE,103,0.0,1.0,75,0.00,,,0.01,,2013-05-01 00:01:00,
2013-04-30 17:11:00,62.0,54.0,29.81,ESE,103,0.0,1.0,75,0.00,,,0.01,,2013-05-01 00:11:00,
2013-04-30 17:21:00,62.0,54.0,29.80,SW,222,0.0,1.0,74,0.00,,,0.01,,2013-05-01 00:21:00,
2013-04-30 17:31:00,62.0,54.0,29.81,SW,222,1.0,4.0,75,0.00,,,0.01,,2013-05-01 00:31:00,
2013-04-30 17:42:00,62.0,54.0,29.81,SW,222,1.0,4.0,75,0.00,,,0.01,,2013-05-01 00:42:00,
2013-04-30 17:51:00,61.0,53.0,29.81,SW,219,0.0,0.0,75,0.00,,,0.01,,2013-05-01 00:51:00,
2013-04-30 18:01:00,61.0,53.0,29.80,SSW,198,0.0,6.0,76,0.00,,,0.01,,2013-05-01 01:01:00,
2013-04-30 18:11:00,61.0,53.0,29.80,SSW,198,0.0,6.0,76,0.00,,,0.01,,2013-05-01 01:11:00,
2013-04-30 18:21:00,61.0,53.0,29.81,SSW,202,0.0,0.0,76,0.00,,,0.01,,2013-05-01 01:21:00,
2013-04-30 18:31:00,61.0,54.0,29.81,SSW,203,0.0,2.0,77,0.00,,,0.01,,2013-05-01 01:31:00,
2013-04-30 18:41:00,61.0,54.0,29.81,SSW,203,0.0,2.0,77,0.00,,,0.01,,2013-05-01 01:41:00,
2013-04-30 18:52:00,60.0,53.0,29.81,SSW,201,0.0,5.0,77,0.00,,,0.01,,2013-05-01 01:52:00,
2013-04-30 19:01:00,60.0,53.0,29.81,SSW,201,0.0,1.0,77,0.00,,,0.01,,2013-05-01 02:01:00,
2013-04-30 19:11:00,60.0,53.0,29.81,SSW,201,0.0,1.0,77,0.00,,,0.01,,2013-05-01 02:11:00,
2013-04-30 19:21:00,59.0,53.0,29.81,SSW,202,0.0,2.0,80,0.00,,,0.01,,2013-05-01 02:21:00,
2013-04-30 19:32:00,59.0,53.0,29.82,WSW,240,0.0,1.0,81,0.00,,,0.01,,2013-05-01 02:32:00,
2013-04-30 19:42:00,59.0,53.0,29.82,WSW,240,0.0,1.0,81,0.00,,,0.01,,2013-05-01 02:42:00,
2013-04-30 19:52:00,58.0,53.0,29.82,WSW,240,0.0,2.0,83,0.00,,,0.01,,2013-05-01 02:52:00,
2013-04-30 20:01:00,57.0,52.0,29.83,WSW,240,0.0,0.0,84,0.00,,,0.01,,2013-05-01 03:01:00,
2013-04-30 20:11:00,57.0,52.0,29.83,WSW,240,0.0,0.0,84,0.00,,,0.01,,2013-05-01 03:11:00,
2013-04-30 20:21:00,56.0,52.0,29.83,WSW,240,0.0,0.0,86,0.00,,,0.01,,2013-05-01 03:21:00,
2013-04-30 20:32:00,56.0,52.0,29.83,WSW,240,0.0,0.0,87,0.00,,,0.01,,2013-05-01 03:32:00,
2013-04-30 20:42:00,56.0,52.0,29.83,WSW,240,0.0,0.0,87,0.00,,,0.01,,2013-05-01 03:42:00,
2013-04-30 20:53:00,55.0,52.0,29.84,WSW,240,0.0,0.0,88,0.00,,,0.01,,2013-05-01 03:53:00,
2013-04-30 21:02:00,55.0,52.0,29.84,WSW,240,0.0,1.0,88,0.00,,,0.01,,2013-05-01 04:02:00,
2013-04-30 21:12:00,55.0,52.0,29.84,WSW,240,0.0,1.0,88,0.00,,,0.01,,2013-05-01 04:12:00,
2013-04-30 21:22:00,54.0,51.0,29.85,WSW,240,0.0,0.0,90,0.00,,,0.01,,2013-05-01 04:22:00,
2013-04-30 21:32:00,54.0,51.0,29.85,WSW,240,0.0,0.0,91,0.00,,,0.01,,2013-05-01 04:32:00,
2013-04-30 21:42:00,54.0,51.0,29.85,WSW,240,0.0,0.0,91,0.00,,,0.01,,2013-05-01 04:42:00,
2013-04-30 21:52:00,54.0,51.0,29.85,WSW,240,0.0,0.0,91,0.00,,,0.01,,2013-05-01 04:52:00,
2013-04-30 22:02:00,54.0,51.0,29.85,WSW,240,0.0,0.0,91,0.00,,,0.01,,2013-05-01 05:02:00,
2013-04-30 22:11:00,54.0,51.0,29.85,WSW,240,0.0,0.0,91,0.00,,,0.01,,2013-05-01 05:11:00,
2013-04-30 22:21:00,53.0,50.0,29.85,WSW,241,0.0,2.0,91,0.00,,,0.01,,2013-05-01 05:21:00,
2013-04-30 22:32:00,53.0,51.0,29.85,WSW,241,0.0,0.0,92,0.00,,,0.01,,2013-05-01 05:32:00,
2013-04-30 22:41:00,53.0,51.0,29.85,WSW,241,0.0,0.0,92,0.00,,,0.01,,2013-05-01 05:41:00,
2013-04-30 22:52:00,53.0,51.0,29.86,WSW,241,0.0,0.0,92,0.00,,,0.01,,2013-05-01 05:52:00,
2013-04-30 23:01:00,53.0,51.0,29.86,WSW,241,0.0,0.0,93,0.00,,,0.01,,2013-05-01 06:01:00,
2013-04-30 23:11:00,53.0,51.0,29.86,WSW,241,0.0,0.0,93,0.00,,,0.01,,2013-05-01 06:11:00,
2013-04-30 23:22:00,52.0,50.0,29.87,WSW,241,0.0,0.0,94,0.00,,,0.01,,2013-05-01 06:22:00,
2013-04-30 23:32:00,52.0,50.0,29.87,WSW,241,0.0,0.0,94,0.00,,,0.01,,2013-05-01 06:32:00,
2013-04-30 23:42:00,52.0,50.0,29.87,WSW,241,0.0,0.0,94,0.00,,,0.01,,2013-05-01 06:42:00,
2013-04-30 23:52:00,52.0,50.0,29.87,WSW,241,0.0,0.0,94,0.00,,,0.01,,2013-05-01 06:52:00,